sat.trackr.live / text

‹ back to catalog

ONEWEB-0369

NORAD 49295 · 2021-090S

PAYLOAD ACTIVE UNKNOWN

§ Identity

Operator
Country
UK
Launch date
2021-10-14
Launch site
VOSTO
Launch vehicle
Mass (kg)
RCS (m²)

Purposes: comms

External: N2YO · Heavens-Above · Gunter

§ Orbital elements

Epoch: 2026-09-20T00:41:27.030912Z

Period
109.11 min
Inclination
87.9108°
Eccentricity
0.0002326
Mean motion
13.19726254 rev/d
Perigee alt
1,184.0 km
Apogee alt
1,187.5 km
Semi-major
7,563.9 km
B*
1.6447e-4
RAAN
286.0761°
Arg perigee
91.8317°
Mean anomaly
268.3082°
Rev number
23,892

§ Raw data

ONEWEB-03691 49295U 21090S   26263.02878508  .00000079  00000+0  16447-3 0  99982 49295  87.9108 286.0761 0002326  91.8317 268.3082 13.19726254238929

JSON: /api/v1/satellites/49295 · /tle

For live sub-satellite position, see the globe view (requires WebGL).

§ Visibility from observer

Set your observer location to see the next 7 days of passes ≥ 10°. The values pass through the URL so the page stays shareable.

No JS? Fill the form by hand. The geolocation button needs JavaScript.